Theta_e
298 303 304 304 304 304 296 296 297 301 303 305 316 319 324 323 324 323 323 324 324 326 327 328 327 324 323 323 325 326 326 324 323 322 323 323 322 321 321 320 317 313 312 311
296 301 305 304 307 307 306 306 305 305 302 313 318 319 319 322 323 321 322 324 325 324 324 326 323 323 323 323 323 324 323 322 322 322 320 319 319 317 315 314 313 312 310 310
291 297 298 296 303 307 307 308 306 300 302 315 312 313 315 317 320 321 321 322 323 323 323 323 322 322 319 320 321 321 320 320 320 320 320 320 320 320 317 314 310 308 306 305
290 291 286 301 311 311 307 308 309 308 309 313 312 313 314 318 319 320 321 322 322 323 323 322 322 321 320 320 318 317 314 314 315 316 316 318 318 316 314 311 305 304 304 303
288 291 298 303 305 303 302 303 308 308 308 309 309 314 310 315 319 319 320 324 323 323 323 321 319 318 316 314 313 312 311 313 316 316 314 313 311 309 308 308 306 304 304 300
290 290 290 298 309 312 308 295 309 308 306 305 305 298 303 313 318 319 320 322 323 322 321 317 317 317 316 316 316 315 313 314 316 315 312 309 308 307 306 307 306 305 302 299
289 291 297 306 309 311 295 295 307 307 305 305 302 308 312 314 314 316 319 321 324 322 319 318 319 317 314 313 313 315 316 316 314 313 311 309 308 306 305 305 304 302 300 298
292 290 289 308 309 301 301 305 306 306 304 304 305 307 307 308 310 314 316 320 321 319 319 320 319 318 316 316 318 318 317 317 314 312 311 308 305 304 303 302 300 298 298 298
296 294 302 303 304 306 306 304 304 304 305 305 305 303 306 306 310 314 318 317 318 316 317 316 316 316 315 317 318 318 315 313 312 310 308 306 303 302 301 300 299 298 296 293
299 300 301 305 305 306 306 305 305 306 305 305 304 305 305 307 312 313 315 316 317 317 315 314 316 317 317 318 318 315 310 310 309 308 306 304 303 302 300 299 298 296 295 292
301 303 304 303 304 306 307 307 307 307 307 306 305 305 306 308 311 312 311 313 315 314 313 312 314 315 316 314 313 311 309 308 308 303 302 298 296 295 297 295 298 297 296 294
298 305 299 302 306 308 307 307 308 309 308 309 309 307 309 307 311 309 309 313 309 309 309 309 310 310 314 314 312 309 307 307 305 302 303 299 295 295 294 294 293 294 294 296
304 307 303 307 308 310 308 309 310 311 311 309 309 310 310 309 310 312 312 309 309 311 310 312 312 312 314 312 309 306 303 303 304 303 301 299 295 295 294 295 296 294 293 293
310 308 305 307 306 310 311 312 311 311 311 311 312 315 313 311 313 313 311 313 312 312 311 309 308 307 308 308 305 302 303 300 307 306 306 301 299 296 295 297 296 295 296 295
308 308 307 309 310 309 311 311 309 309 309 309 310 310 309 308 308 310 311 312 310 309 309 307 307 307 306 304 303 303 302 300 302 300 300 300 304 303 301 300 296 295 296 296
308 308 309 309 307 309 310 308 308 308 309 309 308 308 308 307 307 306 308 307 305 306 307 306 305 306 306 304 301 301 300 299 298 302 304 304 304 300 298 295 294 293 293 293
306 304 305 306 307 306 308 308 309 309 309 308 308 308 307 306 307 308 308 307 305 304 307 309 306 305 305 307 307 306 306 305 301 306 305 303 302 300 298 295 293 292 291 290
311 309 309 308 303 303 304 306 307 306 305 307 309 308 306 305 306 306 305 303 303 303 304 302 307 303 305 303 304 305 304 304 303 300 299 299 297 295 293 293 292 292 291 291
309 307 304 303 304 304 304 303 304 305 307 307 306 305 307 307 305 304 303 301 300 300 298 300 300 298 297 296 300 303 302 299 298 297 296 295 294 293 292 292 291 291 291 290
306 305 306 305 305 304 303 305 305 305 305 305 304 303 302 304 306 307 306 303 302 299 298 296 295 295 297 297 296 303 302 300 298 297 296 294 294 293 292 291 291 290 290 289
305 306 305 305 304 305 306 305 305 303 304 304 303 302 301 302 307 305 302 299 298 297 298 294 293 294 296 298 300 301 300 298 297 296 295 293 293 292 291 291 290 290 289 289
305 305 305 305 304 303 303 303 304 303 302 302 301 301 303 305 306 304 302 297 296 294 295 293 292 289 293 292 296 297 297 298 297 295 294 293 293 292 291 291 290 290 289 289
305 305 304 304 303 301 302 303 302 302 301 301 301 300 303 305 305 300 296 298 295 294 294 293 287 286 288 293 293 294 296 296 295 295 294 294 293 292 292 291 291 290 289 289
304 304 303 303 303 302 300 300 301 301 302 302 302 305 304 301 299 297 297 294 292 292 293 292 288 287 289 293 293 293 293 294 293 293 292 289 292 292 292 292 291 291 290 290
305 304 302 301 299 298 299 299 300 301 302 304 305 305 304 299 297 297 295 295 291 293 294 288 287 287 293 292 292 292 292 292 292 291 292 291 291 291 291 291 290 290 290 290
303 303 302 301 300 299 299 300 299 299 300 301 306 307 307 304 300 296 295 293 294 292 293 292 293 294 293 292 292 292 292 292 292 292 292 292 291 290 290 290 290 289 289 289
302 299 299 298 299 300 300 299 298 298 299 303 304 304 303 300 298 296 293 294 294 295 294 293 294 294 293 293 294 294 293 293 291 293 292 292 292 291 291 291 290 289 288 288
Wind_Speed
2 4 10 5 5 5 3 6 5 10 6 1 5 8 5 3 5 9 10 9 9 7 6 7 9 7 8 9 10 9 10 11 10 10 12 13 11 8 7 7 7 9 9 10
6 7 12 12 8 14 16 12 10 11 4 1 5 8 10 10 6 7 8 7 7 7 8 8 7 7 7 8 9 10 11 10 10 11 12 10 6 6 7 9 8 8 8 9
1 2 6 6 6 5 6 6 5 4 2 2 6 8 8 8 9 9 7 5 3 3 4 6 5 5 6 6 5 8 11 10 9 9 8 5 5 8 7 8 8 8 7 9
3 3 3 0 5 8 12 6 7 7 5 6 6 5 7 10 7 6 8 7 4 5 5 6 5 6 6 6 7 8 6 7 6 6 6 5 8 8 8 7 8 7 7 7
6 5 2 4 4 4 1 0 1 5 4 1 3 4 4 8 9 7 6 5 3 4 3 4 6 5 5 6 6 6 6 6 6 6 7 7 8 7 6 8 7 6 5 7
3 6 7 3 5 3 2 1 4 5 3 3 3 3 1 9 7 7 7 5 2 2 4 5 6 5 5 6 5 6 5 5 6 6 8 7 7 7 4 6 6 5 6 6
3 4 2 3 3 2 4 6 5 4 3 4 2 2 3 5 5 5 3 6 5 4 4 5 5 5 5 7 7 5 5 6 7 6 7 6 6 4 5 7 7 6 7 5
3 4 3 2 3 6 5 4 6 5 4 4 5 4 3 5 6 6 4 7 8 7 9 10 9 6 8 10 6 7 5 7 5 6 5 5 7 6 6 6 7 6 6 5
4 5 1 1 4 4 5 7 5 6 5 6 5 2 3 4 8 8 8 9 6 8 9 9 10 9 10 6 5 3 4 6 6 6 6 5 6 6 4 5 5 4 4 4
5 1 3 4 4 5 6 6 6 5 6 5 6 5 4 3 5 8 7 7 5 6 7 8 7 7 6 3 3 4 4 5 5 6 6 6 4 4 4 4 4 4 3 3
5 4 6 1 5 7 7 7 7 4 5 6 6 5 5 3 3 5 5 5 5 5 5 5 3 2 2 4 5 5 4 4 5 4 6 5 5 4 3 1 2 4 3 3
6 13 5 9 8 7 7 6 6 5 3 3 4 6 5 5 4 4 4 3 5 6 6 4 5 5 5 2 2 4 5 4 4 4 4 4 3 3 7 5 5 2 3 3
6 13 5 12 10 7 7 7 7 8 7 6 3 5 5 4 4 4 5 5 5 5 4 4 4 5 4 4 3 5 4 4 4 4 4 3 2 3 3 4 6 6 6 5
15 13 9 4 7 9 9 8 9 6 5 6 6 5 6 5 5 5 4 5 5 4 5 4 5 5 5 3 5 7 6 7 4 4 4 3 3 3 2 1 1 3 4 4
9 4 8 10 10 8 7 8 8 7 6 7 5 7 8 8 6 5 6 5 5 5 5 5 5 5 5 5 7 6 5 4 4 4 2 2 3 3 3 4 4 3 4 6
9 10 12 12 10 9 10 7 8 6 6 6 7 6 6 6 6 6 5 4 5 4 2 4 5 3 3 4 6 4 3 7 5 3 4 4 4 4 4 4 4 4 4 4
16 10 7 9 11 8 8 8 8 7 6 7 7 7 7 6 4 5 4 5 5 3 1 2 3 2 4 4 4 3 4 3 6 5 5 4 4 4 4 4 3 3 3 2
13 10 12 12 10 9 8 8 7 8 6 7 7 7 7 7 6 6 5 5 5 4 5 4 3 3 4 4 4 4 4 4 5 4 4 4 4 4 4 4 3 4 3 4
8 10 9 10 9 10 9 8 7 7 7 7 9 7 6 6 5 5 6 6 4 6 5 4 4 3 2 3 4 4 5 5 4 3 5 6 5 4 4 4 4 4 3 4
8 10 13 12 10 11 9 6 7 7 6 8 7 7 6 5 5 6 5 5 2 2 1 3 3 3 4 6 7 5 6 5 5 4 4 4 5 4 4 5 4 3 3 3
14 14 15 13 10 8 8 8 8 8 6 7 8 7 6 6 5 6 6 3 1 0 2 3 3 2 2 4 4 5 5 5 4 5 5 5 5 5 4 4 3 2 2 1
13 14 13 11 10 7 6 6 8 7 7 6 5 5 5 6 6 4 2 4 2 3 4 2 1 3 3 6 4 5 4 5 5 4 4 4 4 5 4 4 3 2 1 1
12 12 11 10 10 8 6 6 6 8 7 6 6 5 5 4 4 5 3 3 2 5 3 2 1 3 6 5 4 4 4 5 5 5 4 4 4 5 4 4 3 3 2 1
12 11 9 9 10 9 8 4 6 6 6 6 6 5 5 4 0 2 2 5 5 6 4 3 2 5 6 4 4 4 4 5 5 4 4 5 4 4 4 4 3 3 3 3
13 12 11 10 8 5 7 7 6 4 5 4 5 5 5 4 4 4 4 3 4 5 3 3 3 6 4 3 4 5 5 4 5 5 5 4 4 4 3 3 3 3 2 2
12 9 8 9 7 6 5 5 5 4 4 3 2 3 4 3 2 3 3 4 4 4 3 3 2 4 5 5 4 5 5 5 5 4 5 5 5 4 4 4 3 3 3 3
7 7 5 4 2 5 5 5 5 5 4 4 4 3 4 3 4 3 3 4 4 4 3 3 1 5 5 5 5 5 4 4 5 5 5 4 4 4 5 5 4 3 3 3
Wind_Direction
100 161 79 66 50 26 72 134 120 177 136 225 52 59 57 74 28 38 37 45 33 27 25 37 54 45 35 48 60 71 69 67 69 73 79 80 78 76 77 69 67 81 86 63
48 57 102 71 20 79 82 83 86 118 97 73 63 65 44 15 36 27 21 27 59 39 37 33 42 29 35 54 72 82 77 82 87 88 91 93 96 84 84 95 88 84 76 78
119 85 102 36 349 48 88 26 128 133 111 87 72 58 34 22 18 13 359 6 38 77 92 88 36 42 59 73 88 82 93 90 89 93 90 83 86 86 88 92 94 77 65 71
138 34 99 205 65 82 104 65 80 93 84 104 115 99 51 23 26 14 356 342 23 29 44 43 27 33 50 54 62 79 73 85 82 81 80 76 79 82 75 79 82 79 69 64
108 70 79 288 230 183 122 193 242 133 89 75 259 233 19 26 4 350 352 4 73 51 58 47 67 47 62 53 61 78 78 82 89 89 82 78 82 80 75 86 71 73 82 82
112 120 187 221 118 103 133 242 160 127 120 26 18 119 303 354 332 335 347 325 140 83 69 71 49 45 47 61 70 62 95 96 84 84 91 87 97 87 71 92 103 101 86 74
90 114 249 187 129 129 123 226 115 111 113 132 97 66 7 345 352 333 341 10 63 75 83 48 51 67 47 56 27 50 102 101 96 93 94 97 81 75 88 92 90 85 87 70
93 94 214 64 116 174 162 90 129 128 138 119 113 97 49 4 354 352 2 31 53 57 64 57 49 48 40 49 40 42 59 88 89 82 81 77 93 85 79 92 89 79 83 61
135 194 220 341 120 122 122 126 147 131 153 142 128 110 51 18 16 8 78 81 72 75 75 62 62 63 64 63 83 29 38 65 71 68 75 85 94 97 85 88 95 91 91 90
122 179 134 109 93 116 122 129 140 137 148 139 135 139 119 82 22 45 43 64 80 76 74 86 90 92 91 79 49 25 61 86 85 94 83 63 62 80 102 101 102 118 127 112
82 89 93 107 132 138 124 118 120 132 149 157 145 154 138 127 88 57 52 29 37 75 85 101 115 103 150 172 170 116 82 106 90 88 87 86 57 41 97 65 174 155 180 165
203 177 148 171 168 146 130 141 141 125 129 141 180 168 143 155 130 122 110 81 67 65 68 52 64 69 89 325 86 105 94 105 121 111 92 83 103 79 43 69 65 65 145 157
170 153 144 150 154 146 139 151 151 155 143 128 106 124 131 139 129 136 111 110 105 97 86 76 29 42 28 46 66 87 97 103 121 123 124 142 132 111 113 349 47 63 53 65
130 116 88 137 165 155 139 154 145 147 140 145 136 123 116 115 112 111 139 132 103 81 83 68 59 39 7 56 77 70 70 67 104 125 131 152 150 132 133 154 58 349 356 14
134 53 125 127 122 136 127 128 125 133 132 115 116 126 120 116 110 102 90 70 101 94 68 67 70 24 25 60 86 88 94 95 118 130 139 127 92 80 62 65 60 37 3 13
119 113 123 136 141 135 136 126 132 148 149 136 132 125 124 125 126 117 108 118 112 109 87 82 65 22 81 80 82 78 73 92 86 88 80 69 71 78 77 72 62 50 35 4
132 144 141 137 149 150 161 157 155 157 149 138 148 144 130 118 93 97 93 98 97 89 87 82 95 49 64 54 92 83 81 91 99 76 79 78 93 92 89 85 83 75 56 29
155 155 160 156 148 138 132 141 138 146 155 157 144 137 136 139 145 125 119 117 96 77 47 29 43 48 56 55 98 97 96 79 76 95 105 96 85 82 81 89 90 88 55 37
136 127 126 117 121 127 127 133 140 139 135 134 130 143 143 136 134 134 136 112 105 82 355 4 1 359 24 148 156 115 100 110 111 92 95 102 94 94 96 90 84 74 67 56
118 118 121 112 118 127 122 123 128 123 126 109 109 123 131 135 139 133 133 114 116 154 84 21 2 11 2 86 148 128 143 135 122 121 128 125 120 113 107 97 95 82 70 56
132 125 121 122 120 119 132 140 133 122 118 123 138 157 163 161 142 133 117 129 253 212 123 56 47 40 48 108 113 120 125 138 144 145 143 136 128 121 122 123 121 113 83 46
127 121 121 124 127 120 129 126 117 118 125 124 124 138 160 136 121 113 116 166 237 153 145 96 50 8 77 81 103 114 133 155 144 145 139 149 142 138 153 160 167 173 155 80
125 124 123 127 130 130 121 122 131 132 134 142 150 155 150 161 154 146 169 229 193 172 137 154 126 169 127 100 98 109 128 128 148 152 148 148 149 154 172 185 191 186 207 222
125 124 120 121 121 121 126 138 130 137 142 158 158 161 143 142 139 237 240 166 177 170 166 191 166 169 127 129 127 126 135 133 134 137 138 139 148 159 170 181 199 218 230 234
131 134 132 134 137 146 140 147 128 136 141 151 165 171 174 179 155 197 166 179 180 171 172 187 152 138 131 147 158 157 164 165 166 160 158 158 158 163 174 181 190 198 205 206
135 141 152 157 156 154 149 144 145 156 139 155 176 177 193 192 174 143 166 187 186 180 187 195 192 182 174 170 174 168 172 172 173 182 175 176 174 180 178 189 195 190 182 182
108 115 113 97 121 146 153 152 142 176 181 167 163 192 179 183 171 165 177 189 201 204 196 190 243 170 184 177 180 181 180 183 179 175 182 180 181 192 195 198 197 192 180 177